Location: Rooftop Observatory
(39.0308°N, 87.1711°W)
Time: 22:44:31
(UTC-05:00)

Terra - Visible Passes

Search period start: 28 August 2016 00:00
Search period end: 07 September 2016 00:00
Orbit: 702 x 703 km, 98.2° (Epoch: 28 August)

Date Brightness Start Highest point End Pass type
(mag) Time Alt. Az. Time Alt. Az. Time Alt. Az.
28 Aug 3.7 22:54:47 26° NNW 22:54:47 26° NNW 22:56:51 10° NNW visible
29 Aug 3.7 21:59:15 19° NNE 21:59:15 19° NNE 22:01:11 10° NNE visible
29 Aug 4.5 23:38:08 15° NW 23:38:08 15° NW 23:39:11 10° NNW visible
30 Aug 3.8 22:42:36 25° N 22:42:36 25° N 22:44:34 10° N visible
31 Aug 3.9 21:47:04 16° NE 21:47:04 16° NE 21:48:33 10° NNE visible
31 Aug 4.4 23:25:57 17° NNW 23:25:57 17° NNW 23:27:08 10° NNW visible
01 Sep 3.8 22:30:25 22° N 22:30:25 22° N 22:32:13 10° N visible
02 Sep 4.1 21:34:54 12° NE 21:34:54 12° NE 21:35:42 10° NNE visible
02 Sep 4.4 23:13:47 18° NNW 23:13:47 18° NNW 23:15:02 10° NNW visible
03 Sep 3.9 22:18:15 19° NNE 22:18:15 19° NNE 22:19:49 10° N visible
04 Sep 4.3 23:01:37 18° NNW 23:01:37 18° NNW 23:02:50 10° NNW visible
05 Sep 4.1 22:06:04 16° NNE 22:06:04 16° NNE 22:07:19 10° N visible
05 Sep 4.9 23:44:58 10° NW 23:44:58 10° NW 23:45:01 10° NW visible
06 Sep 4.3 22:49:27 17° N 22:49:27 17° N 22:50:34 10° N visible
